Simultaneous Nadir Overpasses (SNOs) Predictions

Prediction of SNOs between AQUA and NOAA-19 Satellite Orbit:

Table of predicted SNOs for the next 14.0 days since TLE Epoch: 4/27/2017
Index Date (AQUA) Time (AQUA) Lat,Lon (AQUA) SZA (AQUA ) Date (NOAA-19) Time (NOAA-19) Lat,Lon (NOAA-19) SZA (NOAA-19 ) Distance(km) Time Diff (sec)
1 04/29/2017 23:11:05 80.96, 151.79 68.35 04/29/2017 23:10:44 80.96, 151.75 68.36 0.94 21
2 05/02/2017 04:44:47 -80.95,-111.41 112.37 05/02/2017 04:44:38 -80.96,-111.46 112.35 1.31 9
3 05/04/2017 10:18:30 80.95, -14.86 66.99 05/04/2017 10:18:24 80.96, -14.77 66.99 1.76 6
4 05/06/2017 15:52:13 -80.96, 81.50 113.62 05/06/2017 15:52:20 -80.96, 81.51 113.62 0.69 7
5 05/08/2017 21:25:55 80.94, 178.32 65.74 05/08/2017 21:26:05 80.96, 178.23 65.76 2.12 10




NCC Satellite Simultaneous Nadir Overpasses (SNOs) Prediction Service
